Weather History for LKNA - October, 2012

Change the Weather History Date:

Saturday, October 20, 2012

  Actual Average Record
Temperature  
Mean Temperature 54 °F -  
Max Temperature 62 °F - - ()
Min Temperature 46 °F - - ()
Degree Days  
Heating Degree Days 11    
Growing Degree Days 4 (Base 50)    
Moisture  
Dew Point 49 °F    
Average Humidity 89    
Maximum Humidity 100    
Minimum Humidity 68    
Precipitation  
Precipitation 0.00 in - - ()
Sea Level Pressure  
Sea Level Pressure 30.11 in    
Wind  
Wind Speed 4 mph ()    
Max Wind Speed 7 mph    
Max Gust Speed -    
Visibility 3.2 miles    
Events Fog    
T = Trace of Precipitation, MM = Missing Value Source: Averaged Metar Reports

Daily Weather History Graph

Daily Weather History Graph

Search for Another Location

Airport or City:

Trip Planner

Search our weather history database for the weather conditions in past years. The results will help you decide how hot, cold, wet, or windy it might be!

Date:

Astronomy

Oct. 20, 2012 Rise Set
Actual Time 7:24 AM CEST 5:55 PM CEST
Civil Twilight 6:52 AM CEST 6:27 PM CEST
Nautical Twilight 6:15 AM CEST 7:04 PM CEST
Astronomical Twilight 5:38 AM CEST 7:41 PM CEST
Moon 1:02 PM CEST (10/20) 10:05 PM CEST (10/20)
Length of Visible Light 11h 35m
Length of Day
10h 30m
Waxing Crescent, 31% of the Moon is Illuminated
Oct 20
Waxing Crescent
Oct 22
First Quarter
Oct 29
Full
Nov 7
Last Quarter
Nov 13
New

Hourly Weather History & Observations

Time (CEST) Temp. Windchill Dew Point Humidity Pressure Visibility Wind Dir Wind Speed Gust Speed Precip Events Conditions
12:00 AM 50.0 °F - 48.2 °F 94% 30.09 in - NE 5.8 mph - N/A   Clear
1:00 AM 50.0 °F - 48.2 °F 94% 30.09 in - ENE 5.8 mph - N/A   Clear
2:00 AM 50.0 °F - 48.2 °F 94% 30.09 in - East 5.8 mph - N/A   Clear
3:00 AM 48.2 °F - 46.4 °F 93% 30.09 in 5.6 mi ENE 4.6 mph - N/A   Unknown
4:00 AM 50.0 °F - 48.2 °F 94% 30.09 in 5.6 mi NE 3.5 mph - N/A   Unknown
5:00 AM 48.2 °F - 46.4 °F 93% 30.09 in 5.6 mi NNE 4.6 mph - N/A   Unknown
6:00 AM 48.2 °F - 46.4 °F 93% 30.09 in 5.6 mi North 4.6 mph - N/A   Unknown
6:38 AM 46.4 °F 42.9 °F 44.6 °F 93% 30.09 in 1.9 mi North 6.9 mph - N/A Fog Unknown
7:00 AM 46.4 °F 42.9 °F 44.6 °F 93% 30.09 in 0.7 mi North 6.9 mph - N/A Fog Fog
8:00 AM 46.4 °F 42.9 °F 44.6 °F 93% 30.09 in 0.7 mi North 6.9 mph - N/A Fog Mist
9:00 AM 46.4 °F 43.5 °F 44.6 °F 93% 30.12 in 1.2 mi North 5.8 mph - N/A   Mist
10:00 AM 48.2 °F - 46.4 °F 93% 30.12 in 1.9 mi North 3.5 mph - N/A   Mist
11:00 AM 55.4 °F - 50.0 °F 82% 30.12 in 3.7 mi Variable 1.2 mph - N/A   Unknown
12:00 PM 57.2 °F - 50.0 °F 77% 30.12 in 5.6 mi Variable 2.3 mph - N/A   Unknown
1:00 PM 60.8 °F - 50.0 °F 68% 30.12 in - Variable 1.2 mph - N/A   Clear
2:00 PM 62.6 °F - 51.8 °F 68% 30.12 in - Calm Calm - N/A   Clear
3:00 PM 62.6 °F - 53.6 °F 72% 30.12 in - Calm Calm - N/A   Clear
4:00 PM 62.6 °F - 51.8 °F 68% 30.12 in - SE 3.5 mph - N/A   Clear
5:00 PM 60.8 °F - 53.6 °F 77% 30.12 in - SSE 3.5 mph - N/A   Clear
7:00 PM 53.6 °F - 51.8 °F 94% 30.12 in - SW 2.3 mph - N/A   Clear
8:00 PM 53.6 °F - 51.8 °F 94% 30.12 in 4.3 mi SW 2.3 mph - N/A   Unknown
9:00 PM 53.6 °F - 51.8 °F 94% 30.12 in 3.7 mi West 2.3 mph - N/A   Unknown
10:00 PM 51.8 °F - 51.8 °F 100% 30.12 in 4.3 mi North 4.6 mph - N/A   Unknown
11:00 PM 50.0 °F - 50.0 °F 100% 30.12 in 1.9 mi North 5.8 mph - N/A   Mist
11:16 PM 50.0 °F - 50.0 °F 100% 30.12 in 1.9 mi North 4.6 mph - N/A Fog Mist
11:30 PM 50.0 °F - 50.0 °F 100% 30.12 in 0.7 mi North 5.8 mph - N/A   Mist